Wind_Speed
29 30 31 33 33 33 34 34 35 35 36 37 37 37 38 39 39 39 39 38 38 38 38 38 39 39 39 38 38 39 39 39 39 40 39 39 40 40 40 40 40 41 41
29 30 31 32 34 34 34 35 36 36 36 37 37 37 37 38 39 39 39 39 38 38 38 38 38 38 38 38 38 39 39 39 40 40 40 40 40 41 41 41 42 42 42
29 30 31 32 32 33 34 35 36 37 37 37 38 39 39 38 38 38 39 39 40 40 39 39 38 38 38 38 38 38 38 39 39 40 40 40 40 41 41 41 42 42 43
29 30 31 31 32 33 34 35 36 37 37 38 39 40 40 40 40 40 40 40 40 40 39 39 39 38 38 38 38 38 39 39 40 40 41 41 41 41 41 41 41 41 42
27 29 30 30 31 32 32 33 33 35 36 37 38 39 39 40 39 40 40 39 39 40 39 38 37 37 38 38 38 38 39 40 40 40 40 40 41 41 41 40 40 41 41
25 27 28 30 30 31 31 32 33 34 35 37 37 38 38 38 38 38 38 38 38 38 39 39 38 38 38 38 38 39 39 40 40 40 40 41 41 41 40 40 40 40 39
24 26 28 29 29 30 31 32 33 33 34 35 35 36 36 37 37 37 37 37 37 37 37 37 37 38 38 39 38 39 40 39 39 40 40 41 41 41 41 41 40 39 39
23 25 26 28 29 29 30 31 31 32 32 32 33 33 34 35 36 36 36 36 37 37 37 37 37 37 38 39 39 39 39 39 39 40 41 42 41 41 41 41 40 40 40
23 24 25 26 27 28 29 30 31 31 31 31 32 32 32 33 34 35 35 35 35 36 36 37 37 38 38 38 38 39 39 39 40 40 41 41 41 41 41 41 41 41 41
24 25 26 27 27 27 28 29 30 31 32 32 32 32 32 33 33 34 35 35 35 36 36 37 37 38 38 38 38 39 39 40 40 41 41 41 40 40 40 40 40 41 41
25 26 28 28 29 29 29 29 30 31 32 32 33 33 33 33 33 33 34 34 34 35 36 37 37 37 38 38 38 38 38 39 40 40 40 40 40 40 40 41 41 41 41
26 27 28 29 29 29 29 29 30 30 31 32 32 33 33 33 34 34 34 34 34 35 35 36 36 37 37 38 38 39 39 40 40 39 39 39 39 40 40 40 40 40 39
27 28 28 28 29 29 29 29 30 30 30 31 32 32 32 33 33 33 34 34 33 34 34 34 35 36 36 37 38 38 39 39 39 39 39 38 38 38 38 39 39 39 39
27 28 28 29 29 29 30 31 31 31 31 31 31 32 32 33 33 34 34 34 34 34 34 34 34 34 34 35 37 37 38 38 38 38 38 39 39 39 39 39 39 38 38
29 29 29 29 30 30 30 30 31 31 31 31 31 31 32 33 33 34 34 34 34 34 34 34 33 34 34 34 36 37 37 37 38 38 38 38 39 39 38 38 38 38 37
31 31 31 32 32 32 31 31 31 31 31 31 31 31 32 32 33 33 34 33 33 33 33 33 33 33 33 33 34 34 35 36 37 37 37 37 38 37 37 37 37 38 37
33 34 33 33 32 32 32 32 32 32 32 32 32 32 32 33 33 33 33 33 33 33 33 33 33 33 33 33 33 33 34 35 36 36 36 36 36 37 37 37 37 37 37
34 35 35 35 35 34 34 34 33 33 33 33 33 33 33 33 33 33 33 33 33 33 34 34 34 34 34 33 33 33 33 34 34 35 35 36 36 37 37 37 37 38 38
37 37 37 36 36 35 35 35 35 35 35 35 35 35 34 34 34 34 34 34 34 34 34 34 34 34 33 33 33 33 33 33 34 34 35 36 36 36 37 37 37 37 37
38 38 37 37 37 37 36 36 36 35 35 35 35 35 35 35 34 34 34 34 34 34 34 34 34 33 33 34 34 34 34 34 34 35 35 36 36 36 37 37 37 36 36
39 39 39 38 38 38 37 37 37 36 36 36 36 36 36 36 35 35 35 35 35 35 35 34 34 34 34 35 35 36 36 35 35 35 35 36 36 36 36 37 36 36 36
40 40 40 39 39 39 39 38 38 38 38 38 37 37 37 37 36 37 36 36 37 37 36 36 36 35 36 36 36 36 36 36 35 35 35 35 36 35 36 36 36 36 36
41 41 41 41 40 40 41 40 39 39 39 39 39 39 39 38 38 38 38 38 38 38 37 37 37 36 36 36 36 36 35 35 35 35 35 35 35 35 35 36 36 36 36
43 43 43 42 42 42 42 42 42 41 41 40 40 40 40 39 39 39 39 38 37 37 37 37 36 37 36 36 36 36 35 35 35 35 35 35 34 34 35 35 35 36 36
45 45 44 44 43 44 44 44 44 43 43 42 42 41 41 40 40 39 39 38 38 38 37 37 36 36 36 36 36 36 36 35 35 35 36 35 34 34 34 35 36 36 36
46 45 44 44 44 44 44 44 45 44 44 44 43 43 42 41 40 40 39 39 39 38 38 38 37 37 36 36 36 36 36 36 35 35 35 34 34 34 34 35 36 36 36
Wind_Direction
246 247 247 247 249 250 251 253 253 254 254 254 254 254 256 256 256 257 259 260 260 260 260 262 262 263 263 262 262 262 262 262 262 263 264 266 268 270 272 275 276 276 277
247 249 250 250 251 253 254 256 256 255 256 256 256 257 258 257 257 257 259 260 260 261 262 262 263 263 263 262 261 262 262 262 262 263 264 266 268 270 272 273 277 278 277
250 250 251 253 254 255 256 257 257 257 257 257 258 259 260 260 259 259 260 260 261 262 263 264 264 264 264 262 260 261 261 262 262 262 265 267 268 271 272 275 277 278 277
253 252 253 255 257 259 259 258 259 259 259 260 260 260 260 261 261 261 261 261 262 262 263 263 263 264 265 264 262 261 262 262 262 263 265 267 269 272 273 275 277 278 278
256 256 256 257 259 260 260 261 261 261 260 261 262 261 261 261 262 261 261 262 263 263 263 264 263 264 264 264 264 263 263 263 263 263 265 267 270 271 274 275 276 278 278
260 259 258 259 261 262 262 262 262 263 262 262 262 261 261 262 262 262 262 263 264 265 265 265 264 264 264 265 264 264 264 265 265 265 266 268 270 272 274 275 275 277 278
261 262 261 262 263 264 264 264 264 264 263 263 262 262 262 262 262 263 263 264 264 265 264 264 265 266 266 265 265 265 266 266 267 267 267 269 271 273 274 275 275 275 277
263 263 264 264 265 265 266 266 265 265 264 264 264 264 264 263 262 262 263 264 264 264 264 263 264 265 266 266 266 267 267 266 266 267 268 269 271 272 273 274 275 275 276
268 267 267 268 267 267 266 266 265 265 266 265 264 264 265 264 264 264 263 264 265 265 264 264 264 264 265 266 266 267 267 266 266 267 268 270 270 271 273 274 275 275 275
272 270 269 270 270 268 267 267 267 266 265 266 266 265 265 265 265 265 264 264 264 265 264 263 264 265 264 265 266 267 267 267 267 267 268 268 269 269 271 273 275 275 275
274 274 273 272 272 270 269 269 269 268 267 267 267 266 266 266 266 265 265 264 265 265 265 265 265 266 265 265 265 267 267 267 267 268 268 269 270 270 271 272 274 275 275
276 276 275 274 273 272 271 271 271 272 270 269 268 268 268 267 266 265 265 264 265 266 267 266 266 267 266 266 266 266 267 267 267 267 268 269 269 270 271 272 273 274 274
278 278 278 276 275 273 273 273 274 273 273 272 271 270 270 268 267 266 265 265 265 267 267 268 267 268 267 267 267 267 266 266 266 266 267 269 269 270 271 272 273 274 275
279 278 278 277 276 275 274 274 274 274 274 274 273 271 270 269 268 267 266 266 267 268 269 269 268 268 268 268 267 267 267 266 266 266 266 267 268 269 270 271 273 274 275
278 278 277 277 276 275 274 274 273 273 273 274 273 271 269 269 268 267 267 267 268 269 269 269 269 269 269 269 269 268 268 267 266 265 265 266 268 270 271 271 272 273 275
279 278 277 278 276 274 275 274 273 272 272 273 272 272 270 269 268 268 267 267 268 269 270 270 270 271 271 271 271 271 269 268 268 268 267 267 267 269 270 270 272 274 276
279 279 279 278 277 275 274 274 274 273 273 272 272 272 271 270 270 269 268 268 269 269 269 269 269 271 272 273 273 272 271 270 270 269 268 268 268 269 271 271 273 275 277
280 280 280 279 277 275 273 273 273 273 273 272 271 272 272 271 271 270 269 269 269 269 269 269 269 269 270 271 272 272 272 272 270 269 269 269 269 271 272 273 274 276 277
282 281 280 279 277 276 274 273 273 274 273 272 271 272 272 271 270 270 268 268 268 269 269 269 269 269 270 271 272 272 272 272 271 270 270 270 270 270 272 273 274 275 276
282 281 280 279 278 276 274 273 273 272 272 271 271 271 270 271 270 269 268 268 268 269 269 269 269 269 269 271 272 272 271 271 271 271 271 270 270 271 273 274 274 275 276
282 281 280 279 278 276 275 273 273 271 271 270 270 270 270 270 270 270 269 268 268 269 269 268 268 269 269 271 271 272 272 271 271 271 270 270 271 272 273 274 274 275 276
281 280 279 279 278 276 275 273 272 271 270 270 269 269 269 269 269 269 269 268 269 269 267 267 268 268 269 271 271 272 272 271 270 270 270 271 271 271 272 273 274 275 276
279 279 279 278 277 276 275 273 272 270 270 270 269 268 268 268 269 269 269 269 269 268 267 267 267 268 269 270 270 271 271 271 270 269 269 270 271 272 273 273 274 276 276
279 278 278 277 276 275 274 273 271 270 269 269 269 268 267 267 268 269 269 269 268 267 267 267 267 267 268 269 269 269 269 270 269 269 271 272 273 273 273 273 274 275 277
278 278 277 276 276 275 274 272 270 269 268 269 269 268 267 266 266 267 268 267 267 266 266 266 267 268 267 267 268 268 268 268 269 269 271 272 273 273 274 274 274 276 278
277 278 278 277 276 276 274 272 270 269 269 268 267 267 266 266 266 266 266 267 266 266 266 266 267 267 268 268 267 267 268 268 269 269 270 271 272 274 275 276 276 277 278
Height
5736 5738 5740 5742 5743 5744 5745 5747 5747 5748 5749 5750 5751 5752 5754 5756 5757 5758 5760 5761 5763 5764 5765 5766 5767 5768 5769 5770 5771 5772 5773 5775 5776 5778 5780 5781 5781 5782 5782 5782 5782 5782 5782
5730 5733 5734 5736 5737 5738 5739 5740 5740 5741 5742 5742 5743 5745 5746 5747 5748 5750 5751 5753 5754 5755 5756 5758 5759 5760 5760 5761 5762 5763 5764 5766 5767 5769 5770 5772 5774 5773 5773 5773 5773 5773 5772
5725 5727 5728 5729 5730 5731 5732 5732 5733 5733 5734 5735 5736 5737 5738 5739 5740 5741 5742 5744 5745 5746 5747 5749 5750 5751 5752 5752 5753 5754 5755 5757 5758 5759 5761 5763 5764 5764 5765 5764 5764 5763 5763
5719 5720 5722 5723 5723 5724 5724 5725 5725 5726 5726 5727 5728 5729 5730 5731 5731 5732 5733 5735 5736 5737 5738 5739 5741 5742 5743 5744 5745 5745 5746 5748 5749 5750 5751 5753 5754 5755 5756 5756 5755 5754 5753
5713 5714 5715 5716 5716 5717 5717 5718 5718 5718 5718 5719 5719 5720 5721 5722 5723 5723 5725 5726 5727 5728 5729 5730 5732 5733 5734 5734 5735 5737 5737 5738 5740 5741 5742 5743 5744 5744 5745 5746 5746 5744 5744
5707 5708 5709 5709 5710 5710 5710 5710 5710 5710 5710 5710 5710 5711 5712 5713 5714 5715 5716 5717 5719 5720 5721 5721 5723 5724 5725 5725 5726 5727 5728 5729 5730 5731 5732 5733 5734 5735 5735 5735 5735 5735 5734
5702 5702 5702 5703 5703 5703 5703 5703 5703 5702 5702 5702 5702 5702 5703 5703 5705 5706 5708 5709 5710 5711 5712 5713 5714 5715 5715 5716 5717 5717 5718 5719 5721 5722 5723 5724 5725 5725 5725 5725 5725 5725 5725
5696 5696 5696 5696 5696 5696 5695 5695 5695 5694 5694 5694 5694 5694 5695 5695 5696 5698 5699 5700 5701 5702 5703 5704 5705 5706 5706 5707 5707 5708 5709 5710 5712 5713 5714 5714 5715 5715 5715 5715 5715 5716 5716
5689 5690 5689 5689 5689 5688 5688 5688 5687 5687 5687 5686 5687 5687 5687 5687 5688 5689 5690 5691 5692 5693 5693 5694 5696 5696 5697 5698 5698 5699 5700 5701 5702 5703 5704 5704 5705 5705 5705 5705 5705 5706 5706
5683 5683 5682 5682 5681 5681 5681 5680 5680 5679 5679 5679 5679 5679 5679 5680 5680 5681 5682 5683 5683 5684 5684 5685 5686 5687 5688 5689 5689 5690 5690 5691 5692 5693 5694 5694 5695 5695 5695 5695 5695 5695 5695
5677 5676 5675 5674 5674 5673 5673 5672 5672 5671 5671 5671 5671 5671 5671 5672 5672 5673 5673 5674 5674 5675 5675 5676 5677 5678 5678 5679 5680 5680 5681 5681 5682 5683 5684 5684 5685 5685 5685 5686 5685 5685 5685
5669 5668 5667 5666 5665 5665 5665 5664 5664 5663 5663 5662 5662 5663 5663 5663 5664 5664 5665 5665 5666 5666 5666 5667 5668 5668 5669 5669 5670 5670 5671 5672 5673 5673 5674 5675 5675 5675 5675 5675 5676 5676 5675
5661 5660 5659 5658 5657 5657 5656 5656 5655 5655 5654 5654 5654 5654 5654 5654 5655 5655 5656 5656 5657 5657 5657 5658 5658 5659 5659 5659 5660 5660 5661 5662 5663 5663 5664 5665 5665 5666 5666 5666 5666 5666 5666
5653 5652 5651 5650 5649 5649 5648 5647 5647 5646 5646 5645 5645 5646 5646 5646 5646 5646 5647 5647 5648 5648 5648 5649 5649 5649 5649 5650 5650 5650 5651 5651 5652 5653 5654 5655 5655 5656 5656 5656 5656 5656 5656
5645 5644 5643 5642 5641 5640 5640 5639 5638 5638 5637 5637 5637 5637 5637 5637 5637 5637 5638 5638 5639 5639 5640 5640 5640 5640 5640 5640 5640 5640 5640 5641 5642 5643 5644 5644 5645 5645 5646 5646 5646 5646 5646
5636 5635 5634 5633 5632 5631 5630 5630 5629 5629 5629 5628 5628 5628 5628 5628 5628 5628 5629 5629 5630 5630 5631 5631 5631 5631 5631 5630 5630 5630 5630 5631 5632 5632 5633 5634 5635 5635 5636 5636 5636 5636 5636
5626 5625 5624 5623 5623 5622 5621 5620 5620 5620 5619 5619 5619 5619 5619 5619 5619 5619 5620 5620 5621 5621 5622 5622 5622 5622 5621 5621 5621 5621 5621 5621 5622 5623 5623 5624 5625 5625 5626 5626 5626 5626 5625
5616 5615 5614 5613 5612 5611 5611 5610 5610 5610 5609 5609 5609 5609 5609 5609 5609 5610 5610 5611 5611 5612 5612 5612 5612 5612 5612 5612 5612 5611 5612 5612 5612 5613 5614 5614 5614 5615 5616 5616 5616 5616 5615
5605 5604 5603 5602 5601 5601 5600 5599 5599 5599 5599 5599 5599 5599 5599 5600 5600 5600 5600 5601 5601 5602 5602 5602 5602 5602 5602 5602 5602 5602 5603 5603 5603 5603 5604 5604 5605 5605 5605 5606 5606 5605 5605
5594 5593 5592 5591 5590 5589 5588 5588 5588 5588 5588 5588 5588 5588 5589 5589 5590 5590 5590 5591 5591 5591 5592 5592 5592 5592 5593 5593 5592 5593 5593 5593 5593 5593 5594 5594 5594 5595 5595 5595 5595 5595 5594
5583 5582 5581 5580 5578 5577 5577 5577 5577 5577 5577 5577 5577 5578 5578 5578 5579 5579 5580 5580 5581 5581 5581 5582 5582 5582 5582 5582 5582 5582 5582 5583 5583 5583 5583 5583 5584 5584 5584 5584 5584 5584 5584
5571 5570 5568 5568 5567 5565 5565 5565 5565 5565 5565 5565 5566 5566 5567 5567 5568 5568 5569 5569 5570 5570 5571 5571 5571 5571 5571 5571 5571 5571 5571 5571 5572 5573 5573 5573 5573 5573 5573 5573 5573 5573 5573
5559 5557 5556 5555 5554 5553 5552 5552 5552 5552 5553 5553 5554 5554 5555 5555 5556 5557 5557 5558 5558 5559 5559 5560 5560 5560 5560 5560 5560 5560 5560 5561 5561 5562 5562 5562 5562 5562 5562 5562 5562 5562 5561
5545 5544 5543 5542 5541 5540 5539 5539 5539 5539 5540 5540 5541 5542 5542 5543 5544 5544 5545 5546 5546 5547 5547 5548 5548 5549 5549 5549 5549 5549 5550 5550 5550 5551 5551 5551 5551 5551 5551 5551 5550 5550 5550
5532 5530 5529 5528 5528 5527 5526 5525 5525 5525 5526 5527 5528 5528 5529 5530 5531 5532 5533 5534 5534 5534 5536 5536 5537 5537 5538 5538 5538 5538 5539 5539 5539 5540 5540 5540 5540 5540 5540 5540 5539 5539 5538
5517 5516 5515 5514 5513 5512 5512 5511 5511 5511 5512 5513 5513 5514 5516 5517 5518 5519 5520 5521 5522 5522 5523 5524 5525 5525 5526 5526 5526 5527 5527 5527 5528 5529 5529 5529 5529 5529 5529 5529 5528 5528 5527